Date String (YYYY-MM-DD hh:mm:ss) UTC,Instrument flags,Ambient pressure (hPa),Sample flow (lpm),Bypass flow (lpm),Sample temperature (°C),Ambient temperature (°C),ASC tube jacket temperature (°C),LED temperature (°C),Box temperature (°C),Sample RH (%),Span deviation,Mass concentration (μg/m³),Mass concentration (μg/m³),Mass concentration (μg/m³)
DateTimeUTC,F1_M11,P_M11,Q1_M11,Q2_M11,T1_M11,T2_M11,T3_M11,T4_M11,T5_M11,U1_M11,ZSPAN_M11,X2_M11,X0_M11,X1_M11
2023-03-08 22:00:00,,0823.2,4.98,0.00,22.5,21.0,00.0,31.3,24.3,13.4,-002.6,0012.79,0018.77,0012.12
2023-03-08 22:01:00,,0823.2,5.01,0.00,22.5,21.0,00.0,31.3,24.3,13.4,-002.3,0012.79,0018.95,0012.11
2023-03-08 22:02:00,,0823.2,5.00,0.00,22.5,21.0,00.0,31.3,24.2,13.3,-002.4,0012.77,0018.81,0012.10
2023-03-08 22:03:00,,0823.2,5.00,0.00,22.5,21.0,00.0,31.3,24.3,13.4,-002.3,0012.77,0018.61,0012.10
2023-03-08 22:04:00,,0823.2,5.01,0.00,22.5,21.0,00.0,31.3,24.3,13.4,-002.4,0012.77,0018.28,0012.09
2023-03-08 22:05:00,,0823.2,4.99,0.00,22.5,21.0,00.0,31.3,24.3,13.4,-002.4,0012.77,0018.01,0012.12
2023-03-08 22:06:00,,0823.2,5.00,0.00,22.5,21.0,00.0,31.3,24.2,13.4,-002.4,0012.76,0017.30,0012.12
2023-03-08 22:07:00,,0823.3,5.02,0.00,22.5,21.0,00.0,31.2,24.2,13.4,-002.2,0012.77,0017.04,0012.12
2023-03-08 22:08:00,,0823.2,5.03,0.00,22.5,20.9,00.0,31.2,24.2,13.5,-002.2,0012.82,0017.34,0012.14
2023-03-08 22:09:00,,0823.2,4.99,0.00,22.5,20.9,00.0,31.2,24.2,13.4,-002.1,0012.85,0017.51,0012.16
2023-03-08 22:10:00,,0823.1,4.99,0.00,22.5,20.9,00.0,31.2,24.2,13.4,-002.1,0012.88,0017.56,0012.17
2023-03-08 22:11:00,,0823.1,5.01,0.00,22.5,20.9,00.0,31.2,24.2,13.3,-001.9,0012.91,0017.55,0012.20
2023-03-08 22:12:00,,0823.1,4.99,0.00,22.5,20.9,00.0,31.2,24.2,13.4,-002.0,0012.93,0017.36,0012.23
2023-03-08 22:13:00,,0823.1,5.00,0.00,22.4,20.9,00.0,31.2,24.2,13.3,-001.9,0012.98,0017.19,0012.27
2023-03-08 22:14:00,,0823.2,5.00,0.00,22.4,20.9,00.0,31.2,24.2,13.3,-002.0,0013.02,0017.53,0012.29
2023-03-08 22:15:00,,0823.2,5.02,0.00,22.4,20.9,00.0,31.2,24.2,13.3,-002.0,0013.05,0017.62,0012.32
2023-03-08 22:16:00,,0823.1,4.97,0.00,22.4,20.9,00.0,31.2,24.2,13.4,-001.9,0013.10,0017.62,0012.35
2023-03-08 22:17:00,,0823.1,5.00,0.00,22.4,20.8,00.0,31.2,24.2,13.3,-001.8,0013.10,0017.67,0012.39
2023-03-08 22:18:00,,0823.1,5.01,0.00,22.4,20.8,00.0,31.2,24.2,13.3,-001.9,0013.14,0017.48,0012.43
2023-03-08 22:19:00,,0823.1,5.02,0.00,22.4,20.8,00.0,31.2,24.2,13.3,-001.8,0013.17,0017.38,0012.49
2023-03-08 22:20:00,,0823.1,5.03,0.00,22.4,20.8,00.0,31.2,24.2,13.3,-001.7,0013.17,0017.48,0012.52
2023-03-08 22:21:00,,0823.0,4.99,0.00,22.4,20.8,00.0,31.1,24.2,13.4,-001.8,0013.20,0017.51,0012.54
2023-03-08 22:22:00,,0823.0,5.00,0.00,22.4,20.8,00.0,31.1,24.1,13.4,-001.9,0013.24,0017.57,0012.56
2023-03-08 22:23:00,,0823.1,5.00,0.00,22.4,20.8,00.0,31.1,24.1,13.4,-002.1,0013.32,0017.73,0012.61
2023-03-08 22:24:00,,0823.1,4.99,0.00,22.4,20.8,00.0,31.1,24.2,13.5,-002.2,0013.34,0017.72,0012.63
2023-03-08 22:25:00,,0823.1,5.00,0.00,22.4,20.8,00.0,31.1,24.1,13.4,-002.2,0013.34,0017.49,0012.64
2023-03-08 22:26:00,,0823.1,5.00,0.00,22.3,20.8,00.0,31.1,24.1,13.4,-002.2,0013.37,0017.51,0012.62
2023-03-08 22:27:00,,0823.1,5.00,0.00,22.3,20.8,00.0,31.1,24.1,13.3,-002.2,0013.32,0017.61,0012.59
2023-03-08 22:28:00,,0823.1,4.99,0.00,22.3,20.8,00.0,31.1,24.1,13.4,-002.4,0013.31,0017.62,0012.58
2023-03-08 22:29:00,,0823.1,5.00,0.00,22.3,20.9,00.0,31.1,24.1,13.5,-002.5,0013.25,0017.74,0012.52
2023-03-08 22:30:00,,0823.1,5.01,0.00,22.4,21.7,00.0,31.1,24.3,13.4,-002.4,0013.22,0017.56,0012.48
2023-03-08 22:31:00,,0823.1,5.02,0.00,22.5,22.7,00.0,31.1,24.5,13.3,-002.4,0013.23,0017.38,0012.46
2023-03-08 22:32:00,,0823.1,5.01,0.00,22.6,23.1,00.0,31.2,24.6,13.3,-002.2,0013.27,0017.58,0012.48
2023-03-08 22:33:00,,0823.1,5.01,0.00,22.7,22.7,00.0,31.2,24.6,13.2,-002.1,0013.24,0017.60,0012.47
2023-03-08 22:34:00,,0823.0,5.03,0.00,22.7,22.4,00.0,31.2,24.6,13.1,-002.0,0013.16,0017.70,0012.43
2023-03-08 22:35:00,,0823.1,5.00,0.00,22.7,22.1,00.0,31.2,24.6,13.1,-002.1,0013.16,0018.21,0012.44
2023-03-08 22:36:00,,0823.1,5.01,0.00,22.7,21.9,00.0,31.3,24.5,13.1,-002.0,0013.22,0018.36,0012.47
2023-03-08 22:37:00,,0823.1,5.00,0.00,22.7,21.7,00.0,31.3,24.5,13.1,-001.9,0013.29,0018.44,0012.52
2023-03-08 22:38:00,,0823.1,4.99,0.00,22.7,21.6,00.0,31.3,24.5,13.2,-002.0,0013.33,0018.32,0012.55
2023-03-08 22:39:00,,0823.1,5.01,0.00,22.7,21.5,00.0,31.3,24.5,13.1,-001.9,0013.32,0018.18,0012.54
2023-03-08 22:40:00,,0823.0,5.01,0.00,22.7,21.4,00.0,31.3,24.5,13.2,-001.8,0013.34,0018.36,0012.55
2023-03-08 22:41:00,,0823.1,5.03,0.00,22.7,21.4,00.0,31.3,24.5,13.2,-001.8,0013.36,0018.41,0012.56
2023-03-08 22:42:00,,0823.1,4.98,0.00,22.7,21.3,00.0,31.3,24.4,13.2,-001.9,0013.32,0018.37,0012.54
2023-03-08 22:43:00,,0823.2,4.99,0.00,22.7,21.3,00.0,31.3,24.4,13.2,-001.9,0013.29,0018.35,0012.52
2023-03-08 22:44:00,,0823.2,5.03,0.00,22.7,21.2,00.0,31.3,24.4,13.2,-002.0,0013.30,0018.59,0012.51
2023-03-08 22:45:00,,0823.2,4.99,0.00,22.6,21.2,00.0,31.3,24.4,13.2,-002.0,0013.29,0019.17,0012.49
2023-03-08 22:46:00,,0823.1,5.00,0.00,22.6,21.2,00.0,31.3,24.4,13.2,-002.0,0013.23,0018.82,0012.43
2023-03-08 22:47:00,,0823.1,5.00,0.00,22.6,21.1,00.0,31.3,24.4,13.3,-002.2,0013.10,0018.64,0012.34
2023-03-08 22:48:00,,0823.1,5.00,0.00,22.6,21.1,00.0,31.3,24.3,13.4,-002.3,0012.98,0018.62,0012.24
2023-03-08 22:49:00,,0823.1,5.00,0.00,22.6,21.1,00.0,31.3,24.4,13.4,-002.4,0012.86,0019.07,0012.15
2023-03-08 22:50:00,,0823.1,4.99,0.00,22.6,21.0,00.0,31.3,24.3,13.6,-002.4,0012.77,0019.18,0012.04
2023-03-08 22:51:00,,0823.1,5.00,0.00,22.6,21.0,00.0,31.3,24.3,13.9,-002.2,0012.58,0018.86,0011.88
2023-03-08 22:52:00,,0823.1,5.01,0.00,22.6,21.0,00.0,31.3,24.3,14.4,-002.0,0012.31,0018.51,0011.64
2023-03-08 22:53:00,,0823.1,4.99,0.00,22.6,21.0,00.0,31.3,24.3,14.4,-002.2,0012.04,0018.12,0011.40
2023-03-08 22:54:00,,0823.1,5.00,0.00,22.5,20.9,00.0,31.3,24.3,14.4,-002.2,0011.77,0017.63,0011.16
2023-03-08 22:55:00,,0823.1,5.01,0.00,22.5,20.9,00.0,31.3,24.2,14.5,-002.1,0011.54,0017.48,0010.92
2023-03-08 22:56:00,,0823.1,5.00,0.00,22.5,20.9,00.0,31.3,24.2,14.5,-002.2,0011.32,0017.45,0010.70
2023-03-08 22:57:00,,0823.0,5.01,0.00,22.5,20.8,00.0,31.3,24.2,14.7,-002.1,0011.10,0016.99,0010.49
2023-03-08 22:58:00,,0823.0,5.00,0.00,22.5,20.8,00.0,31.3,24.2,14.7,-001.8,0010.89,0016.70,0010.28
2023-03-08 22:59:00,,0823.1,5.02,0.00,22.4,20.8,00.0,31.3,24.1,14.7,-001.8,0010.66,0016.36,0010.07
